TimeCDT,TemperatureF,Dew PointF,Humidity,Sea Level PressureIn,VisibilityMPH,Wind Direction,Wind SpeedMPH,Gust SpeedMPH,PrecipitationIn,Events,Conditions,WindDirDegrees,DateUTC
12:15 AM,80.6,64.4,58,29.93,10.0,South,8.1,-,N/A,,Scattered Clouds,180,2013-07-09 05:15:00
12:35 AM,84.2,60.8,45,29.93,10.0,South,10.4,-,N/A,Thunderstorm,Clear,180,2013-07-09 05:35:00
12:55 AM,81.5,62.4,52,29.99,10.0,West,13.8,17.3,N/A,,Scattered Clouds,260,2013-07-09 05:55:00
1:15 AM,79.7,63.7,58,29.98,10.0,West,12.7,29.9,N/A,Rain,Light Rain,270,2013-07-09 06:15:00
1:35 AM,75.7,66.4,73,29.98,7.0,WSW,15.0,29.9,0.03,Rain,Heavy Rain,240,2013-07-09 06:35:00
1:55 AM,75.9,66.4,72,29.95,10.0,South,17.3,-,0.06,Rain-Thunderstorm,Light Thunderstorms and Rain,190,2013-07-09 06:55:00
2:15 AM,76.1,65.8,70,29.89,10.0,South,23.0,32.2,0.01,Rain-Thunderstorm,Light Thunderstorms and Rain,180,2013-07-09 07:15:00
2:35 AM,76.3,65.5,69,29.92,10.0,SSW,21.9,29.9,0.01,,Clear,200,2013-07-09 07:35:00
2:55 AM,76.1,64.8,68,29.92,10.0,SSW,15.0,19.6,0.01,,Clear,200,2013-07-09 07:55:00
3:15 AM,77.4,62.2,59,29.90,10.0,SSW,19.6,24.2,N/A,,Clear,200,2013-07-09 08:15:00
3:35 AM,77.9,61.7,57,29.88,10.0,South,15.0,20.7,N/A,,Clear,180,2013-07-09 08:35:00
3:55 AM,77.2,62.4,60,29.87,10.0,South,11.5,18.4,N/A,,Clear,180,2013-07-09 08:55:00
4:15 AM,74.1,64.4,72,29.88,10.0,South,11.5,17.3,N/A,,Clear,190,2013-07-09 09:15:00
4:35 AM,72.5,64.9,77,29.88,10.0,South,11.5,-,N/A,,Clear,190,2013-07-09 09:35:00
4:55 AM,73.4,63.0,70,29.87,10.0,South,12.7,19.6,N/A,,Clear,190,2013-07-09 09:55:00
5:15 AM,73.4,63.0,70,29.87,10.0,South,13.8,19.6,N/A,,Clear,190,2013-07-09 10:15:00
5:35 AM,74.5,63.5,68,29.87,10.0,SSW,13.8,19.6,N/A,,Clear,200,2013-07-09 10:35:00
5:55 AM,74.3,64.6,72,29.88,10.0,SSW,8.1,-,N/A,,Clear,200,2013-07-09 10:55:00
6:15 AM,75.2,65.5,72,29.89,10.0,South,9.2,17.3,N/A,,Clear,190,2013-07-09 11:15:00
6:35 AM,74.7,66.4,75,29.90,10.0,SSW,9.2,-,N/A,,Clear,200,2013-07-09 11:35:00
6:55 AM,75.0,67.3,77,29.90,10.0,SSW,8.1,-,N/A,,Clear,200,2013-07-09 11:55:00
7:15 AM,75.0,68.0,79,29.90,10.0,SSW,6.9,-,N/A,,Clear,200,2013-07-09 12:15:00
7:35 AM,75.4,68.5,79,29.91,10.0,SSW,5.8,-,N/A,,Clear,210,2013-07-09 12:35:00
7:55 AM,75.4,68.9,80,29.96,10.0,North,18.4,23.0,N/A,,Clear,10,2013-07-09 12:55:00
8:15 AM,75.2,67.8,78,29.96,10.0,North,8.1,-,N/A,,Clear,360,2013-07-09 13:15:00
8:35 AM,76.6,68.2,75,29.96,10.0,NNE,8.1,-,N/A,,Clear,20,2013-07-09 13:35:00
8:55 AM,78.1,68.2,71,29.96,10.0,NNE,5.8,-,N/A,,Clear,20,2013-07-09 13:55:00
9:15 AM,79.2,68.7,70,29.96,10.0,NE,3.5,-,N/A,,Clear,50,2013-07-09 14:15:00
9:35 AM,79.9,68.0,67,29.96,10.0,Calm,Calm,-,N/A,,Clear,0,2013-07-09 14:35:00
9:55 AM,80.6,67.8,65,29.96,10.0,NNW,3.5,-,N/A,,Clear,340,2013-07-09 14:55:00
10:15 AM,81.7,68.2,63,29.96,10.0,North,3.5,-,N/A,,Clear,10,2013-07-09 15:15:00
10:35 AM,82.2,67.5,61,29.95,10.0,NE,4.6,-,N/A,,Clear,50,2013-07-09 15:35:00
10:55 AM,83.1,67.3,59,29.96,10.0,ENE,3.5,-,N/A,,Clear,70,2013-07-09 15:55:00
11:15 AM,83.5,67.3,58,29.96,10.0,NE,3.5,-,N/A,,Clear,50,2013-07-09 16:15:00
11:35 AM,83.5,67.1,58,29.96,10.0,Calm,Calm,-,N/A,,Clear,0,2013-07-09 16:35:00
11:55 AM,84.2,67.3,57,29.96,10.0,NE,3.5,-,N/A,,Clear,40,2013-07-09 16:55:00
12:15 PM,85.6,69.1,58,29.96,10.0,East,3.5,-,N/A,,Clear,100,2013-07-09 17:15:00
12:16 PM,86.0,69.8,58,29.96,10.0,East,4.6,-,N/A,,Clear,100,2013-07-09 17:16:00
12:35 PM,85.5,67.5,55,29.96,10.0,Calm,Calm,-,N/A,,Clear,0,2013-07-09 17:35:00
12:36 PM,86.0,68.0,55,29.96,10.0,Calm,Calm,-,N/A,,Clear,0,2013-07-09 17:36:00
12:55 PM,87.6,68.2,52,29.96,10.0,Calm,Calm,-,N/A,,Clear,0,2013-07-09 17:55:00
12:56 PM,87.8,69.8,55,29.96,10.0,ENE,4.6,-,N/A,,Clear,70,2013-07-09 17:56:00
1:15 PM,87.3,69.3,55,29.95,10.0,East,3.5,-,N/A,,Clear,90,2013-07-09 18:15:00
1:16 PM,87.8,69.8,55,29.95,10.0,ENE,4.6,-,N/A,,Clear,70,2013-07-09 18:16:00
1:35 PM,87.6,69.6,55,29.95,10.0,East,3.5,-,N/A,,Clear,100,2013-07-09 18:35:00
1:55 PM,88.3,69.6,54,29.96,10.0,ESE,4.6,-,N/A,,Clear,110,2013-07-09 18:55:00
2:15 PM,88.9,68.0,50,29.96,10.0,Calm,Calm,-,N/A,,Clear,0,2013-07-09 19:15:00
2:35 PM,89.8,69.3,51,29.96,10.0,Calm,Calm,-,N/A,,Clear,0,2013-07-09 19:35:00
2:55 PM,89.6,68.4,49,29.95,10.0,Calm,Calm,-,N/A,,Clear,0,2013-07-09 19:55:00
3:15 PM,90.7,68.7,48,29.95,10.0,Calm,Calm,-,N/A,,Clear,0,2013-07-09 20:15:00
3:35 PM,92.5,68.7,46,29.95,10.0,Calm,Calm,-,N/A,,Clear,0,2013-07-09 20:35:00
3:55 PM,91.6,67.6,45,29.95,10.0,NE,3.5,-,N/A,,Clear,50,2013-07-09 20:55:00
4:15 PM,92.5,68.9,46,29.95,10.0,Calm,Calm,-,N/A,,Clear,0,2013-07-09 21:15:00
4:35 PM,92.1,68.5,46,29.95,10.0,ESE,3.5,-,N/A,,Clear,120,2013-07-09 21:35:00
4:55 PM,91.9,68.9,47,29.95,10.0,East,4.6,-,N/A,,Clear,90,2013-07-09 21:55:00
5:15 PM,92.3,70.0,48,29.95,10.0,ENE,4.6,-,N/A,,Clear,70,2013-07-09 22:15:00
5:35 PM,92.1,69.3,47,29.94,10.0,East,4.6,-,N/A,,Clear,80,2013-07-09 22:35:00
5:55 PM,92.3,69.8,48,29.93,10.0,ENE,5.8,-,N/A,,Clear,60,2013-07-09 22:55:00
6:15 PM,91.8,72.0,52,29.93,10.0,East,6.9,-,N/A,,Clear,80,2013-07-09 23:15:00
6:35 PM,88.0,71.8,59,29.94,10.0,East,5.8,-,N/A,,Clear,80,2013-07-09 23:35:00
6:55 PM,86.9,72.7,62,29.95,10.0,ENE,3.5,-,N/A,,Clear,60,2013-07-09 23:55:00
7:15 PM,86.2,72.7,64,29.94,10.0,ENE,6.9,-,N/A,,Clear,70,2013-07-10 00:15:00
7:35 PM,85.1,72.5,66,29.95,10.0,NE,8.1,-,N/A,,Clear,40,2013-07-10 00:35:00
7:55 PM,83.7,73.4,71,29.96,10.0,NNE,6.9,-,N/A,,Clear,20,2013-07-10 00:55:00
8:15 PM,82.9,73.4,73,29.94,10.0,East,8.1,-,N/A,Rain,Light Rain,100,2013-07-10 01:15:00
8:35 PM,82.4,72.9,73,29.97,10.0,ENE,4.6,-,N/A,,Clear,60,2013-07-10 01:35:00
8:55 PM,82.2,72.5,72,29.97,10.0,NNE,13.8,-,N/A,,Clear,20,2013-07-10 01:55:00
9:15 PM,82.0,72.1,72,29.97,10.0,NNE,12.7,-,N/A,,Clear,30,2013-07-10 02:15:00
9:35 PM,81.1,71.4,72,29.98,10.0,NNE,12.7,18.4,N/A,,Clear,20,2013-07-10 02:35:00
9:55 PM,80.1,70.3,72,30.00,10.0,NNE,11.5,-,N/A,,Clear,20,2013-07-10 02:55:00
10:15 PM,79.2,70.0,73,30.00,10.0,NNE,9.2,-,N/A,,Clear,30,2013-07-10 03:15:00
10:35 PM,77.9,70.0,76,30.00,10.0,NE,6.9,-,N/A,,Clear,40,2013-07-10 03:35:00
10:55 PM,77.0,69.8,78,30.01,10.0,NNE,6.9,-,N/A,,Clear,30,2013-07-10 03:55:00
11:15 PM,76.3,70.0,81,30.02,10.0,NNE,5.8,-,N/A,,Scattered Clouds,20,2013-07-10 04:15:00
11:35 PM,75.7,69.8,82,30.02,10.0,NNE,6.9,-,N/A,,Scattered Clouds,20,2013-07-10 04:35:00
11:55 PM,76.5,69.4,79,30.03,10.0,North,8.1,-,N/A,,Mostly Cloudy,10,2013-07-10 04:55:00